Torna al catalogo

COSMOS 1249 COOLANT *

AttivoLEO
NORAD 29444·DEBRIS·🇷🇺 Russia

Lanciato Mar 5, 1981 da Baikonur Cosmodrome

Loading…

Prossimi Passaggi (prossime 24 ore)

TLE

AggiornatoSource: Space-Track

Epoca: Sep 13, 2026, 10:06 UTC

1 29444U 81021W   26256.42134156  .00000055  00000-0  11551-3 0  9998
2 29444  64.9628 186.6788 0063600 240.7792 118.6901 13.90135193616464

Traccia COSMOS 1249 COOLANT * in tempo reale con AllMySat

Download on the App Store